This demonstration page uses our WeatherBlox Daily Observations layout. Learn more.

Left ArrowRight Arrow

Hourly Observations for June 28, 2017

Temp ( °F °C ) Dew Point ( °F °C ) Humidity (%) Winds ( mph kmh ) Pressure ( in mb ) Visibility ( mi km ) Precip ( " mm )
12:53 am 00:53 Clear 58 14.4 43 6.1 58 58 E 9 15 29.67 1005 10 16 0.00 0.00
1:53 am 01:53 Mostly Clear 61 16.1 44 6.7 54 54 S 7 11 29.66 1004 10 16 0.00 0.00
2:53 am 02:53 Mostly Clear 59 15 44 6.7 58 58 W 3 6 29.65 1004 10 16 0.00 0.00
3:53 am 03:53 Clear 50 10 44 6.7 80 80 WSW 7 11 29.65 1004 10 16 0.00 0.00
4:53 am 04:53 Clear 50 10 44 6.7 80 80 E 6 9 29.66 1004 10 16 0.00 0.00
5:53 am 05:53 Sunny 52 11.1 45 7.2 77 77 Calm 29.66 1004 10 16 0.00 0.00
6:53 am 06:53 Sunny 56 13.3 46 7.8 70 70 Calm 29.66 1004 10 16 0.00 0.00
7:53 am 07:53 Sunny 62 16.7 50 10 65 65 SW 12 19 29.65 1004 10 16 0.00 0.00
8:53 am 08:53 Sunny 66 18.9 48 8.9 52 52 SW 15 24 29.65 1004 10 16 0.00 0.00
9:53 am 09:53 Sunny 72 22.2 44 6.7 37 37 WSW 14 22 29.65 1004 10 16 0.00 0.00
10:53 am 10:53 Sunny 75 23.9 44 6.7 33 33 NW 10 17 29.64 1004 10 16 0.00 0.00
11:53 am 11:53 Sunny 80 26.7 42 5.6 26 26 NW 12 19 29.63 1004 10 16 0.00 0.00
12:53 pm 12:53 Mostly Sunny 82 27.8 30 -1.1 15 15 WNW 20 31 29.62 1003 10 16 0.00 0.00
1:53 pm 13:53 Sunny 81 27.2 31 -0.6 16 16 W 17 28 29.62 1003 10 16 0.00 0.00
2:53 pm 14:53 Sunny 82 27.8 31 -0.6 16 16 WSW 17 28 29.62 1003 10 16 0.00 0.00
3:53 pm 15:53 Sunny 81 27.2 30 -1.1 16 16 W 20 31 29.63 1003 10 16 0.00 0.00
4:53 pm 16:53 Sunny 83 28.3 28 -2.2 13 13 W 12 19 29.63 1003 10 16 0.00 0.00
5:53 pm 17:53 Mostly Sunny 83 28.3 32 0 16 16 NNW 14 22 29.63 1004 10 16 0.00 0.00
6:53 pm 18:53 Partly Cloudy 83 28.3 30 -1.1 15 15 NW 7 11 29.64 1004 10 16 0.00 0.00
7:53 pm 19:53 Sunny 78 25.6 30 -1.1 17 17 NNW 15 24 29.67 1005 10 16 0.00 0.00
8:53 pm 20:53 Sunny 73 22.8 33 0.6 23 23 NNW 8 13 29.70 1006 10 16 0.00 0.00
9:53 pm 21:53 Clear 65 18.3 46 7.8 51 51 NNE 22 35 29.74 1007 10 16 0.00 0.00
10:53 pm 22:53 Clear 63 17.2 45 7.2 52 52 NNE 14 22 29.78 1009 10 16 0.00 0.00
11:53 pm 23:53 Mostly Cloudy 62 16.7 45 7.2 54 54 WNW 14 22 29.85 1011 10 16 0.00 0.00

Powered by AerisWeather